Location: St Paul
(33.4390°N, 83.7350°W)
Time: 22:26:16
(UTC-05:00)

Lacrosse 5 rocket - Pass Details

Date: 06 October 2017
Orbit: 466 x 635 km, 57.0° (Epoch: 08 December)

Event Time Altitude Azimuth Distance (km) Brightness Sun altitude
Rises 20:32:52 0° 208° (SSW) 2,891 5.3 -17.6°
Reaches altitude 10° 20:35:13 10° 205° (SSW) 1,972 4.4 -18.1°
Maximum altitude 20:39:39 59° 126° (SE) 696 1.5 -19.0°
Enters shadow 20:40:46 44° 72° (ENE) 833 1.8 -19.3°
